Station Historical Data
Daily Summary for April 30, 2017 Units:  English    Metric   Both
Next Day »
Daily Weekly Monthly Yearly Custom
  High: Low: Average:
Temperature: 71.6 °F 50.5 °F 60.6 °F
Dew Point: 48.9 °F 37.8 °F 43.7 °F
Humidity: 71% 36% 55%
Wind Speed: 10.0mph 0.0mph 2.2mph
Wind Gust: 14.0mph - -
Wind- - SSW
Pressure: 30.18 in 30.09 in -
Precipitation: 0.00 in    
Historical Graphs
 
 
Tabular Data for April 30, 2017
Time Temperature Dew Point Pressure Wind Wind Speed Wind Gust Humidity Rainfall Rate (Hourly) solar Conditions
00:00 55.1 °F 42.3 °F 30.15 in Calm   6.0 mph 62% 0.00 in 0.00 W/m2
00:05 55.0 °F 41.8 °F 30.15 in Calm   6.0 mph 61% 0.00 in 0.00 W/m2
00:10 55.0 °F 42.2 °F 30.15 in ESE 1.0 mph 6.0 mph 62% 0.00 in 0.00 W/m2
00:15 54.8 °F 42.0 °F 30.15 in Calm   6.0 mph 62% 0.00 in 0.00 W/m2
00:20 54.8 °F 42.0 °F 30.16 in Calm   6.0 mph 62% 0.00 in 0.00 W/m2
00:25 54.8 °F 42.0 °F 30.16 in Calm   7.0 mph 62% 0.00 in 0.00 W/m2
00:30 54.7 °F 42.4 °F 30.16 in Calm   7.0 mph 63% 0.00 in 0.00 W/m2
00:35 54.6 °F 42.3 °F 30.16 in Calm   5.0 mph 63% 0.00 in 0.00 W/m2
00:40 54.6 °F 42.3 °F 30.16 in ESE 1.0 mph 6.0 mph 63% 0.00 in 0.00 W/m2
00:45 54.5 °F 41.8 °F 30.16 in Calm   7.0 mph 62% 0.00 in 0.00 W/m2
00:50 54.4 °F 42.1 °F 30.16 in Calm   6.0 mph 63% 0.00 in 0.00 W/m2
00:55 54.3 °F 42.4 °F 30.16 in East 7.0 mph 7.0 mph 64% 0.00 in 0.00 W/m2
01:00 54.2 °F 42.3 °F 30.16 in Calm   7.0 mph 64% 0.00 in 0.00 W/m2
01:06 54.2 °F 42.3 °F 30.16 in East 5.0 mph 5.0 mph 64% 0.00 in 0.00 W/m2
01:11 54.1 °F 42.2 °F 30.15 in ESE 4.0 mph 7.0 mph 64% 0.00 in 0.00 W/m2
01:16 54.0 °F 42.1 °F 30.15 in East 1.0 mph 6.0 mph 64% 0.00 in 0.00 W/m2
01:21 53.9 °F 41.6 °F 30.15 in East 4.0 mph 7.0 mph 63% 0.00 in 0.00 W/m2
01:26 53.9 °F 42.4 °F 30.15 in East 4.0 mph 7.0 mph 65% 0.00 in 0.00 W/m2
01:31 53.9 °F 42.4 °F 30.15 in East 4.0 mph 6.0 mph 65% 0.00 in 0.00 W/m2
01:36 53.8 °F 41.9 °F 30.15 in East 1.0 mph 7.0 mph 64% 0.00 in 0.00 W/m2
01:41 53.7 °F 41.4 °F 30.16 in ESE 5.0 mph 7.0 mph 63% 0.00 in 0.00 W/m2
01:46 53.7 °F 42.2 °F 30.16 in East 5.0 mph 5.0 mph 65% 0.00 in 0.00 W/m2
01:51 53.6 °F 42.1 °F 30.16 in East 1.0 mph 5.0 mph 65% 0.00 in 0.00 W/m2
01:56 53.6 °F 42.5 °F 30.16 in Calm   5.0 mph 66% 0.00 in 0.00 W/m2
02:01 53.5 °F 41.2 °F 30.16 in East 4.0 mph 5.0 mph 63% 0.00 in 0.00 W/m2
02:06 53.5 °F 42.0 °F 30.16 in East 1.0 mph 5.0 mph 65% 0.00 in 0.00 W/m2
02:11 53.4 °F 41.9 °F 30.16 in East 1.0 mph 5.0 mph 65% 0.00 in 0.00 W/m2
02:16 53.3 °F 41.5 °F 30.15 in East 4.0 mph 5.0 mph 64% 0.00 in 0.00 W/m2
02:21 53.2 °F 41.8 °F 30.15 in East 1.0 mph 1.0 mph 65% 0.00 in 0.00 W/m2
02:26 53.1 °F 41.3 °F 30.15 in East 2.0 mph 2.0 mph 64% 0.00 in 0.00 W/m2
02:31 53.0 °F 41.6 °F 30.14 in East 5.0 mph 5.0 mph 65% 0.00 in 0.00 W/m2
02:36 52.9 °F 41.5 °F 30.14 in ESE 2.0 mph 2.0 mph 65% 0.00 in 0.00 W/m2
02:41 52.8 °F 41.4 °F 30.14 in ESE 6.0 mph 7.0 mph 65% 0.00 in 0.00 W/m2
02:46 52.6 °F 41.2 °F 30.14 in ESE 5.0 mph 5.0 mph 65% 0.00 in 0.00 W/m2
02:51 52.6 °F 41.2 °F 30.14 in East 6.0 mph 6.0 mph 65% 0.00 in 0.00 W/m2
02:56 52.5 °F 41.5 °F 30.13 in East 5.0 mph 5.0 mph 66% 0.00 in 0.00 W/m2
03:01 52.4 °F 41.4 °F 30.14 in East 2.0 mph 6.0 mph 66% 0.00 in 0.00 W/m2
03:06 52.4 °F 41.4 °F 30.14 in East 2.0 mph 6.0 mph 66% 0.00 in 0.00 W/m2
03:11 52.3 °F 41.3 °F 30.15 in East 5.0 mph 5.0 mph 66% 0.00 in 0.00 W/m2
03:16 52.3 °F 41.3 °F 30.14 in East 1.0 mph 2.0 mph 66% 0.00 in 0.00 W/m2
03:21 52.2 °F 41.2 °F 30.14 in East 4.0 mph 5.0 mph 66% 0.00 in 0.00 W/m2
03:26 52.2 °F 41.6 °F 30.14 in East 2.0 mph 8.0 mph 67% 0.00 in 0.00 W/m2
03:31 52.1 °F 41.1 °F 30.14 in East 5.0 mph 5.0 mph 66% 0.00 in 0.00 W/m2
03:36 52.1 °F 41.1 °F 30.14 in East 4.0 mph 5.0 mph 66% 0.00 in 0.00 W/m2
03:41 52.0 °F 41.0 °F 30.14 in East 2.0 mph 7.0 mph 66% 0.00 in 0.00 W/m2
03:46 52.0 °F 41.0 °F 30.14 in East 2.0 mph 4.0 mph 66% 0.00 in 0.00 W/m2
03:51 51.9 °F 41.3 °F 30.14 in East 5.0 mph 5.0 mph 67% 0.00 in 0.00 W/m2
03:56 51.8 °F 41.2 °F 30.14 in East 2.0 mph 5.0 mph 67% 0.00 in 0.00 W/m2
04:01 51.7 °F 41.5 °F 30.13 in East 5.0 mph 6.0 mph 68% 0.00 in 0.00 W/m2
04:06 51.7 °F 41.1 °F 30.13 in East 4.0 mph 7.0 mph 67% 0.00 in 0.00 W/m2
04:11 51.6 °F 41.0 °F 30.14 in East 2.0 mph 5.0 mph 67% 0.00 in 0.00 W/m2
04:16 51.6 °F 40.6 °F 30.14 in East 2.0 mph 5.0 mph 66% 0.00 in 0.00 W/m2
04:21 51.6 °F 41.4 °F 30.14 in East 4.0 mph 4.0 mph 68% 0.00 in 0.00 W/m2
04:26 51.5 °F 41.3 °F 30.13 in Calm   5.0 mph 68% 0.00 in 0.00 W/m2
04:31 51.5 °F 40.9 °F 30.13 in East 4.0 mph 7.0 mph 67% 0.00 in 0.00 W/m2
04:36 51.4 °F 41.2 °F 30.14 in Calm   7.0 mph 68% 0.00 in 0.00 W/m2
04:41 51.4 °F 40.8 °F 30.14 in East 1.0 mph 6.0 mph 67% 0.00 in 0.00 W/m2
04:46 51.4 °F 41.2 °F 30.14 in East 7.0 mph 7.0 mph 68% 0.00 in 0.00 W/m2
04:51 51.3 °F 40.7 °F 30.14 in Calm   5.0 mph 67% 0.00 in 0.00 W/m2
04:56 51.3 °F 40.7 °F 30.14 in East 4.0 mph 6.0 mph 67% 0.00 in 0.00 W/m2
05:01 51.3 °F 40.3 °F 30.14 in ESE 4.0 mph 5.0 mph 66% 0.00 in 0.00 W/m2
05:06 51.3 °F 40.3 °F 30.14 in Calm   7.0 mph 66% 0.00 in 0.00 W/m2
05:11 51.3 °F 41.1 °F 30.14 in East 5.0 mph 7.0 mph 68% 0.00 in 0.00 W/m2
05:16 51.2 °F 41.0 °F 30.14 in East 5.0 mph 6.0 mph 68% 0.00 in 0.00 W/m2
05:21 51.2 °F 40.6 °F 30.14 in Calm   6.0 mph 67% 0.00 in 0.00 W/m2
05:26 51.1 °F 40.5 °F 30.14 in East 2.0 mph 4.0 mph 67% 0.00 in 0.00 W/m2
05:31 51.1 °F 40.9 °F 30.15 in East 2.0 mph 5.0 mph 68% 0.00 in 0.00 W/m2
05:36 51.0 °F 40.4 °F 30.15 in East 2.0 mph 5.0 mph 67% 0.00 in 0.00 W/m2
05:37 51.0 °F 40.4 °F 30.15 in Calm   5.0 mph 67% 0.00 in 0.00 W/m2
05:42 51.0 °F 40.4 °F 30.15 in East 5.0 mph 5.0 mph 67% 0.00 in 0.00 W/m2
05:47 51.0 °F 40.4 °F 30.15 in East 2.0 mph 4.0 mph 67% 0.00 in 0.00 W/m2
05:52 51.0 °F 40.4 °F 30.16 in Calm   5.0 mph 67% 0.00 in 0.00 W/m2
05:57 50.9 °F 40.0 °F 30.16 in East 5.0 mph 5.0 mph 66% 0.00 in 0.00 W/m2
06:02 50.9 °F 40.0 °F 30.15 in Calm   2.0 mph 66% 0.00 in 0.00 W/m2
06:07 50.9 °F 40.0 °F 30.15 in East 4.0 mph 7.0 mph 66% 0.00 in 5.00 W/m2
06:12 50.8 °F 39.9 °F 30.16 in East 5.0 mph 6.0 mph 66% 0.00 in 9.00 W/m2
06:17 50.8 °F 39.9 °F 30.15 in Calm   6.0 mph 66% 0.00 in 11.00 W/m2
06:22 50.8 °F 39.9 °F 30.16 in ESE 4.0 mph 4.0 mph 66% 0.00 in 14.00 W/m2
06:27 50.8 °F 39.9 °F 30.16 in ESE 1.0 mph 4.0 mph 66% 0.00 in 16.00 W/m2
06:32 50.7 °F 39.8 °F 30.16 in Calm   4.0 mph 66% 0.00 in 21.00 W/m2
06:37 50.7 °F 40.2 °F 30.16 in ESE 5.0 mph 7.0 mph 67% 0.00 in 30.00 W/m2
06:42 50.6 °F 40.1 °F 30.16 in ESE 6.0 mph 8.0 mph 67% 0.00 in 40.00 W/m2
06:47 50.6 °F 39.7 °F 30.16 in Calm   6.0 mph 66% 0.00 in 51.00 W/m2
06:52 50.6 °F 39.7 °F 30.16 in ESE 2.0 mph 4.0 mph 66% 0.00 in 69.00 W/m2
06:57 50.6 °F 39.7 °F 30.17 in Calm   2.0 mph 66% 0.00 in 86.00 W/m2
07:02 50.6 °F 40.1 °F 30.17 in Calm   5.0 mph 67% 0.00 in 104.00 W/m2
07:07 50.6 °F 40.1 °F 30.17 in Calm   2.0 mph 67% 0.00 in 123.00 W/m2
07:12 50.5 °F 40.0 °F 30.17 in Calm   4.0 mph 67% 0.00 in 142.00 W/m2
07:18 50.6 °F 40.4 °F 30.17 in Calm   5.0 mph 68% 0.00 in 160.00 W/m2
07:23 50.6 °F 40.4 °F 30.17 in Calm   6.0 mph 68% 0.00 in 181.00 W/m2
07:28 50.6 °F 40.8 °F 30.17 in ESE 6.0 mph 6.0 mph 69% 0.00 in 204.00 W/m2
07:33 50.6 °F 40.8 °F 30.17 in Calm   6.0 mph 69% 0.00 in 225.00 W/m2
07:34 50.6 °F 40.8 °F 30.17 in Calm   6.0 mph 69% 0.00 in 232.00 W/m2
07:39 50.7 °F 41.3 °F 30.17 in ESE 2.0 mph 6.0 mph 70% 0.00 in 255.00 W/m2
07:44 50.8 °F 41.4 °F 30.17 in ESE 7.0 mph 7.0 mph 70% 0.00 in 276.00 W/m2
07:49 50.9 °F 41.8 °F 30.17 in ESE 2.0 mph 11.0 mph 71% 0.00 in 297.00 W/m2
07:54 51.0 °F 41.9 °F 30.17 in ESE 1.0 mph 6.0 mph 71% 0.00 in 315.00 W/m2
07:59 51.1 °F 41.7 °F 30.17 in ESE 1.0 mph 6.0 mph 70% 0.00 in 334.00 W/m2
08:04 51.3 °F 42.2 °F 30.17 in Calm   4.0 mph 71% 0.00 in 348.00 W/m2
08:09 51.4 °F 42.0 °F 30.17 in Calm   2.0 mph 70% 0.00 in 366.00 W/m2
08:14 51.7 °F 42.2 °F 30.17 in Calm     70% 0.00 in 383.00 W/m2
08:15 51.7 °F 42.2 °F 30.17 in Calm     70% 0.00 in 387.00 W/m2
08:20 51.9 °F 42.4 °F 30.17 in Calm     70% 0.00 in 401.00 W/m2
08:25 52.1 °F 42.6 °F 30.17 in Calm     70% 0.00 in 418.00 W/m2
08:30 52.4 °F 42.9 °F 30.17 in Calm     70% 0.00 in 436.00 W/m2
08:35 52.8 °F 42.9 °F 30.17 in Calm     69% 0.00 in 452.00 W/m2
08:40 53.1 °F 43.6 °F 30.17 in Calm     70% 0.00 in 471.00 W/m2
08:45 53.4 °F 39.5 °F 30.17 in Calm     59% 0.00 in 487.00 W/m2
08:50 53.7 °F 39.7 °F 30.17 in Calm     59% 0.00 in 503.00 W/m2
08:55 54.2 °F 37.9 °F 30.17 in Calm   2.0 mph 54% 0.00 in 517.00 W/m2
09:00 55.1 °F 37.8 °F 30.17 in East 4.0 mph 6.0 mph 52% 0.00 in 533.00 W/m2
09:05 56.2 °F 38.3 °F 30.17 in North 2.0 mph 5.0 mph 51% 0.00 in 548.00 W/m2
09:10 57.2 °F 39.2 °F 30.17 in North 2.0 mph 5.0 mph 51% 0.00 in 563.00 W/m2
09:15 58.1 °F 40.1 °F 30.17 in Calm   6.0 mph 51% 0.00 in 578.00 W/m2
09:20 58.7 °F 42.6 °F 30.17 in Calm   3.0 mph 55% 0.00 in 596.00 W/m2
09:25 59.1 °F 42.0 °F 30.17 in NNW 3.0 mph 4.0 mph 53% 0.00 in 610.00 W/m2
09:30 59.5 °F 41.4 °F 30.17 in NNW 3.0 mph 8.0 mph 51% 0.00 in 626.00 W/m2
09:35 59.9 °F 41.8 °F 30.17 in Calm   6.0 mph 51% 0.00 in 638.00 W/m2
09:40 60.2 °F 43.0 °F 30.17 in WNW 5.0 mph 5.0 mph 53% 0.00 in 650.00 W/m2
09:45 60.4 °F 41.2 °F 30.17 in Calm   5.0 mph 49% 0.00 in 666.00 W/m2
09:50 60.7 °F 40.9 °F 30.18 in Calm   4.0 mph 48% 0.00 in 680.00 W/m2
09:55 60.9 °F 40.5 °F 30.17 in Calm   4.0 mph 47% 0.00 in 694.00 W/m2
10:00 61.1 °F 41.3 °F 30.17 in Calm   4.0 mph 48% 0.00 in 708.00 W/m2
10:05 61.2 °F 40.8 °F 30.17 in Calm   2.0 mph 47% 0.00 in 719.00 W/m2
10:10 61.3 °F 42.0 °F 30.17 in Calm   3.0 mph 49% 0.00 in 731.00 W/m2
10:15 61.5 °F 43.2 °F 30.17 in WNW 2.0 mph 5.0 mph 51% 0.00 in 742.00 W/m2
10:20 61.8 °F 43.0 °F 30.17 in Calm   4.0 mph 50% 0.00 in 756.00 W/m2
10:25 62.1 °F 42.2 °F 30.17 in WNW 7.0 mph 8.0 mph 48% 0.00 in 766.00 W/m2
10:30 62.4 °F 43.0 °F 30.17 in West 2.0 mph 11.0 mph 49% 0.00 in 779.00 W/m2
10:35 62.7 °F 44.3 °F 30.17 in Calm   6.0 mph 51% 0.00 in 789.00 W/m2
10:40 63.0 °F 44.1 °F 30.17 in West 1.0 mph 5.0 mph 50% 0.00 in 800.00 W/m2
10:45 63.2 °F 43.7 °F 30.17 in West 2.0 mph 8.0 mph 49% 0.00 in 810.00 W/m2
10:50 63.4 °F 43.9 °F 30.18 in West 5.0 mph 5.0 mph 49% 0.00 in 823.00 W/m2
10:55 63.7 °F 44.2 °F 30.18 in WNW 7.0 mph 8.0 mph 49% 0.00 in 830.00 W/m2
11:00 63.9 °F 43.3 °F 30.18 in Calm   5.0 mph 47% 0.00 in 838.00 W/m2
11:05 64.1 °F 43.5 °F 30.18 in West 3.0 mph 6.0 mph 47% 0.00 in 847.00 W/m2
11:10 64.3 °F 43.1 °F 30.18 in West 1.0 mph 7.0 mph 46% 0.00 in 854.00 W/m2
11:15 64.5 °F 44.4 °F 30.18 in Calm   8.0 mph 48% 0.00 in 863.00 W/m2
11:20 64.9 °F 43.7 °F 30.18 in NW 3.0 mph 9.0 mph 46% 0.00 in 872.00 W/m2
11:25 65.3 °F 44.0 °F 30.17 in Calm   6.0 mph 46% 0.00 in 879.00 W/m2
11:30 65.6 °F 44.3 °F 30.17 in Calm   6.0 mph 46% 0.00 in 886.00 W/m2
11:35 66.0 °F 45.2 °F 30.17 in WNW 4.0 mph 6.0 mph 47% 0.00 in 893.00 W/m2
11:37 66.1 °F 44.7 °F 30.17 in Calm   9.0 mph 46% 0.00 in 898.00 W/m2
11:42 66.5 °F 44.5 °F 30.17 in West 1.0 mph 9.0 mph 45% 0.00 in 902.00 W/m2
11:47 66.8 °F 43.6 °F 30.17 in NNW 2.0 mph 7.0 mph 43% 0.00 in 905.00 W/m2
11:52 67.2 °F 44.6 °F 30.17 in NW 2.0 mph 4.0 mph 44% 0.00 in 912.00 W/m2
11:57 67.6 °F 44.3 °F 30.17 in WNW 7.0 mph 7.0 mph 43% 0.00 in 919.00 W/m2
12:02 68.0 °F 44.7 °F 30.16 in WNW 5.0 mph 6.0 mph 43% 0.00 in 923.00 W/m2
12:07 68.3 °F 45.0 °F 30.17 in Calm   6.0 mph 43% 0.00 in 925.00 W/m2
12:12 68.4 °F 43.8 °F 30.16 in Calm   5.0 mph 41% 0.00 in 932.00 W/m2
12:17 68.6 °F 44.0 °F 30.16 in NNW 6.0 mph 10.0 mph 41% 0.00 in 935.00 W/m2
12:22 68.5 °F 43.9 °F 30.16 in NNW 6.0 mph 11.0 mph 41% 0.00 in 937.00 W/m2
12:27 68.5 °F 44.5 °F 30.16 in WNW 3.0 mph 8.0 mph 42% 0.00 in 940.00 W/m2
12:32 68.7 °F 44.1 °F 30.16 in WNW 3.0 mph 7.0 mph 41% 0.00 in 942.00 W/m2
12:37 68.9 °F 45.5 °F 30.16 in West 7.0 mph 10.0 mph 43% 0.00 in 946.00 W/m2
12:43 69.4 °F 44.7 °F 30.16 in WNW 6.0 mph 8.0 mph 41% 0.00 in 947.00 W/m2
12:48 69.6 °F 43.6 °F 30.16 in NW 7.0 mph 10.0 mph 39% 0.00 in 949.00 W/m2
12:53 69.5 °F 43.5 °F 30.15 in NW 3.0 mph 10.0 mph 39% 0.00 in 947.00 W/m2
12:58 69.4 °F 44.1 °F 30.15 in NW 2.0 mph 7.0 mph 40% 0.00 in 949.00 W/m2
13:03 69.6 °F 44.2 °F 30.15 in WSW 10.0 mph 12.0 mph 40% 0.00 in 949.00 W/m2
13:08 70.0 °F 44.6 °F 30.15 in West 3.0 mph 12.0 mph 40% 0.00 in 947.00 W/m2
13:13 70.4 °F 44.3 °F 30.15 in West 3.0 mph 10.0 mph 39% 0.00 in 947.00 W/m2
13:18 70.6 °F 45.1 °F 30.15 in NW 4.0 mph 10.0 mph 40% 0.00 in 946.00 W/m2
13:23 70.3 °F 42.1 °F 30.15 in NNW 6.0 mph 7.0 mph 36% 0.00 in 944.00 W/m2
13:28 69.9 °F 43.2 °F 30.15 in WNW 2.0 mph 11.0 mph 38% 0.00 in 940.00 W/m2
13:33 70.1 °F 44.0 °F 30.15 in SW 8.0 mph 9.0 mph 39% 0.00 in 939.00 W/m2
13:38 70.5 °F 44.4 °F 30.15 in WNW 5.0 mph 7.0 mph 39% 0.00 in 937.00 W/m2
13:43 70.6 °F 43.8 °F 30.15 in WNW 2.0 mph 10.0 mph 38% 0.00 in 933.00 W/m2
13:48 70.7 °F 42.5 °F 30.15 in Calm   2.0 mph 36% 0.00 in 926.00 W/m2
13:53 71.0 °F 44.8 °F 30.15 in Calm   10.0 mph 39% 0.00 in 921.00 W/m2
13:58 71.3 °F 44.4 °F 30.15 in WNW 4.0 mph 5.0 mph 38% 0.00 in 918.00 W/m2
14:03 71.2 °F 42.9 °F 30.15 in West 4.0 mph 8.0 mph 36% 0.00 in 912.00 W/m2
14:08 71.1 °F 43.5 °F 30.14 in WNW 3.0 mph 8.0 mph 37% 0.00 in 907.00 W/m2
14:13 71.0 °F 44.1 °F 30.14 in NW 5.0 mph 6.0 mph 38% 0.00 in 900.00 W/m2
14:18 70.6 °F 44.5 °F 30.14 in WSW 5.0 mph 14.0 mph 39% 0.00 in 896.00 W/m2
14:23 70.7 °F 44.5 °F 30.14 in WSW 3.0 mph 6.0 mph 39% 0.00 in 889.00 W/m2
14:28 71.0 °F 44.8 °F 30.14 in NW 1.0 mph 7.0 mph 39% 0.00 in 882.00 W/m2
14:33 71.0 °F 44.8 °F 30.14 in NW 2.0 mph 11.0 mph 39% 0.00 in 874.00 W/m2
14:38 71.1 °F 45.6 °F 30.14 in Calm   5.0 mph 40% 0.00 in 865.00 W/m2
14:43 71.0 °F 44.1 °F 30.14 in North 10.0 mph 13.0 mph 38% 0.00 in 860.00 W/m2
14:48 71.0 °F 44.1 °F 30.14 in NNW 1.0 mph 7.0 mph 38% 0.00 in 847.00 W/m2
14:53 71.0 °F 44.8 °F 30.14 in Calm   8.0 mph 39% 0.00 in 840.00 W/m2
14:58 71.0 °F 46.1 °F 30.13 in WNW 3.0 mph 8.0 mph 41% 0.00 in 831.00 W/m2
15:03 71.2 °F 46.3 °F 30.13 in Calm   10.0 mph 41% 0.00 in 823.00 W/m2
15:08 71.3 °F 45.1 °F 30.13 in West 1.0 mph 8.0 mph 39% 0.00 in 809.00 W/m2
15:13 71.3 °F 45.1 °F 30.13 in WNW 2.0 mph 11.0 mph 39% 0.00 in 800.00 W/m2
15:18 71.4 °F 44.5 °F 30.13 in West 3.0 mph 10.0 mph 38% 0.00 in 791.00 W/m2
15:23 71.4 °F 44.5 °F 30.12 in NNW 3.0 mph 9.0 mph 38% 0.00 in 780.00 W/m2
15:28 71.3 °F 45.1 °F 30.12 in WNW 3.0 mph 5.0 mph 39% 0.00 in 766.00 W/m2
15:33 71.1 °F 44.2 °F 30.12 in Calm   4.0 mph 38% 0.00 in 759.00 W/m2
15:38 71.1 °F 44.9 °F 30.12 in North 3.0 mph 6.0 mph 39% 0.00 in 749.00 W/m2
15:43 71.0 °F 45.5 °F 30.11 in WSW 1.0 mph 6.0 mph 40% 0.00 in 737.00 W/m2
15:48 71.1 °F 44.9 °F 30.11 in WNW 5.0 mph 6.0 mph 39% 0.00 in 724.00 W/m2
15:54 71.2 °F 44.3 °F 30.11 in West 2.0 mph 8.0 mph 38% 0.00 in 712.00 W/m2
15:59 71.3 °F 45.8 °F 30.11 in Calm   8.0 mph 40% 0.00 in 701.00 W/m2
16:04 71.4 °F 44.5 °F 30.11 in Calm   7.0 mph 38% 0.00 in 689.00 W/m2
16:09 71.4 °F 45.2 °F 30.11 in SW 2.0 mph 8.0 mph 39% 0.00 in 673.00 W/m2
16:14 71.5 °F 44.6 °F 30.10 in NW 1.0 mph 9.0 mph 38% 0.00 in 657.00 W/m2
16:19 71.4 °F 45.2 °F 30.10 in NNW 1.0 mph 4.0 mph 39% 0.00 in 643.00 W/m2
16:24 71.4 °F 44.5 °F 30.10 in NNW 2.0 mph 12.0 mph 38% 0.00 in 626.00 W/m2
16:29 71.4 °F 45.8 °F 30.10 in WSW 2.0 mph 11.0 mph 40% 0.00 in 612.00 W/m2
16:34 71.5 °F 46.6 °F 30.10 in NW 7.0 mph 10.0 mph 41% 0.00 in 596.00 W/m2
16:39 71.6 °F 45.4 °F 30.10 in Calm   7.0 mph 39% 0.00 in 582.00 W/m2
16:44 71.5 °F 46.6 °F 30.10 in WNW 2.0 mph 8.0 mph 41% 0.00 in 564.00 W/m2
16:49 71.6 °F 46.7 °F 30.10 in NW 8.0 mph 14.0 mph 41% 0.00 in 550.00 W/m2
16:54 71.5 °F 47.2 °F 30.10 in NW 6.0 mph 11.0 mph 42% 0.00 in 533.00 W/m2
16:59 71.4 °F 47.1 °F 30.10 in WNW 2.0 mph 5.0 mph 42% 0.00 in 515.00 W/m2
17:04 71.3 °F 47.0 °F 30.10 in NW 2.0 mph 10.0 mph 42% 0.00 in 503.00 W/m2
17:09 71.2 °F 46.3 °F 30.10 in WNW 5.0 mph 14.0 mph 41% 0.00 in 489.00 W/m2
17:14 71.2 °F 47.0 °F 30.10 in NW 3.0 mph 7.0 mph 42% 0.00 in 469.00 W/m2
17:19 71.1 °F 47.5 °F 30.10 in NW 3.0 mph 8.0 mph 43% 0.00 in 450.00 W/m2
17:24 71.0 °F 44.8 °F 30.10 in WNW 3.0 mph 13.0 mph 39% 0.00 in 438.00 W/m2
17:29 70.9 °F 43.4 °F 30.10 in West 3.0 mph 8.0 mph 37% 0.00 in 424.00 W/m2
17:34 70.9 °F 46.0 °F 30.10 in NNW 4.0 mph 7.0 mph 41% 0.00 in 406.00 W/m2
17:39 70.6 °F 45.8 °F 30.10 in WNW 5.0 mph 8.0 mph 41% 0.00 in 387.00 W/m2
17:44 70.4 °F 45.0 °F 30.10 in Calm   10.0 mph 40% 0.00 in 369.00 W/m2
17:49 70.3 °F 45.5 °F 30.10 in West 3.0 mph 6.0 mph 41% 0.00 in 350.00 W/m2
17:54 70.1 °F 46.6 °F 30.10 in Calm   9.0 mph 43% 0.00 in 334.00 W/m2
17:59 69.9 °F 45.8 °F 30.10 in Calm   4.0 mph 42% 0.00 in 318.00 W/m2
18:04 69.8 °F 46.9 °F 30.09 in WNW 5.0 mph 7.0 mph 44% 0.00 in 301.00 W/m2
18:09 69.6 °F 47.9 °F 30.10 in West 2.0 mph 6.0 mph 46% 0.00 in 285.00 W/m2
18:14 69.5 °F 45.4 °F 30.10 in Calm   7.0 mph 42% 0.00 in 267.00 W/m2
18:19 69.3 °F 45.2 °F 30.10 in Calm   8.0 mph 42% 0.00 in 250.00 W/m2
18:24 69.2 °F 45.2 °F 30.10 in Calm   8.0 mph 42% 0.00 in 236.00 W/m2
18:29 69.1 °F 45.7 °F 30.10 in Calm   4.0 mph 43% 0.00 in 216.00 W/m2
18:34 68.9 °F 45.5 °F 30.10 in NNW 4.0 mph 9.0 mph 43% 0.00 in 197.00 W/m2
18:39 68.7 °F 45.3 °F 30.10 in NW 1.0 mph 5.0 mph 43% 0.00 in 176.00 W/m2
18:44 68.5 °F 46.3 °F 30.10 in Calm   4.0 mph 45% 0.00 in 156.00 W/m2
18:49 68.4 °F 46.2 °F 30.10 in West 2.0 mph 4.0 mph 45% 0.00 in 139.00 W/m2
18:54 68.2 °F 47.2 °F 30.10 in Calm   7.0 mph 47% 0.00 in 118.00 W/m2
18:59 68.0 °F 47.0 °F 30.10 in WNW 3.0 mph 7.0 mph 47% 0.00 in 98.00 W/m2
19:04 67.9 °F 48.6 °F 30.10 in NW 4.0 mph 7.0 mph 50% 0.00 in 79.00 W/m2
19:09 67.5 °F 48.8 °F 30.10 in Calm   5.0 mph 51% 0.00 in 65.00 W/m2
19:15 67.0 °F 48.8 °F 30.10 in NW 8.0 mph 8.0 mph 52% 0.00 in 51.00 W/m2
19:20 66.6 °F 48.4 °F 30.10 in Calm   5.0 mph 52% 0.00 in 37.00 W/m2
19:25 66.3 °F 48.7 °F 30.10 in Calm   7.0 mph 53% 0.00 in 28.00 W/m2
19:30 66.0 °F 48.9 °F 30.10 in Calm   7.0 mph 54% 0.00 in 21.00 W/m2
19:35 65.6 °F 48.5 °F 30.10 in Calm   1.0 mph 54% 0.00 in 16.00 W/m2
19:40 65.4 °F 48.3 °F 30.10 in NW 4.0 mph 6.0 mph 54% 0.00 in 12.00 W/m2
19:45 65.2 °F 48.6 °F 30.10 in Calm   7.0 mph 55% 0.00 in 11.00 W/m2
19:50 64.9 °F 48.8 °F 30.10 in Calm   5.0 mph 56% 0.00 in 9.00 W/m2
19:55 64.7 °F 48.7 °F 30.10 in NW 1.0 mph 3.0 mph 56% 0.00 in 7.00 W/m2
20:00 64.4 °F 47.9 °F 30.10 in Calm   3.0 mph 55% 0.00 in 5.00 W/m2
20:05 63.9 °F 48.4 °F 30.10 in NW 3.0 mph 3.0 mph 57% 0.00 in 0.00 W/m2
20:10 63.6 °F 47.6 °F 30.10 in NNW 2.0 mph 6.0 mph 56% 0.00 in 0.00 W/m2
20:15 63.3 °F 47.8 °F 30.10 in NNW 1.0 mph 4.0 mph 57% 0.00 in 0.00 W/m2
20:20 62.9 °F 46.5 °F 30.10 in Calm   4.0 mph 55% 0.00 in 0.00 W/m2
20:25 62.5 °F 47.1 °F 30.10 in NNW 1.0 mph 3.0 mph 57% 0.00 in 0.00 W/m2
20:30 62.3 °F 46.0 °F 30.10 in NNW 5.0 mph 5.0 mph 55% 0.00 in 0.00 W/m2
20:35 62.1 °F 46.2 °F 30.10 in NNW 2.0 mph 6.0 mph 56% 0.00 in 0.00 W/m2
20:40 61.9 °F 46.0 °F 30.10 in Calm   4.0 mph 56% 0.00 in 0.00 W/m2
20:45 61.7 °F 46.8 °F 30.10 in NNW 2.0 mph 4.0 mph 58% 0.00 in 0.00 W/m2
20:50 61.6 °F 46.7 °F 30.10 in NNW 1.0 mph 4.0 mph 58% 0.00 in 0.00 W/m2
20:55 61.3 °F 46.0 °F 30.11 in NNW 4.0 mph 5.0 mph 57% 0.00 in 0.00 W/m2
21:00 61.3 °F 46.4 °F 30.11 in North 2.0 mph 4.0 mph 58% 0.00 in 0.00 W/m2
21:05 61.1 °F 45.8 °F 30.11 in North 7.0 mph 7.0 mph 57% 0.00 in 0.00 W/m2
21:10 61.0 °F 46.1 °F 30.11 in Calm   5.0 mph 58% 0.00 in 0.00 W/m2
21:15 60.8 °F 46.4 °F 30.10 in North 1.0 mph 5.0 mph 59% 0.00 in 0.00 W/m2
21:20 60.6 °F 46.2 °F 30.11 in Calm   4.0 mph 59% 0.00 in 0.00 W/m2
21:25 60.5 °F 46.1 °F 30.11 in North 3.0 mph 5.0 mph 59% 0.00 in 0.00 W/m2
21:30 60.4 °F 46.0 °F 30.11 in Calm   4.0 mph 59% 0.00 in 0.00 W/m2
21:35 60.3 °F 46.8 °F 30.11 in Calm   3.0 mph 61% 0.00 in 0.00 W/m2
21:40 60.2 °F 46.7 °F 30.11 in NNE 5.0 mph 7.0 mph 61% 0.00 in 0.00 W/m2
21:45 60.0 °F 47.0 °F 30.11 in Calm   7.0 mph 62% 0.00 in 0.00 W/m2
21:50 59.8 °F 46.8 °F 30.11 in Calm   3.0 mph 62% 0.00 in 0.00 W/m2
21:55 59.6 °F 46.6 °F 30.11 in Calm   6.0 mph 62% 0.00 in 0.00 W/m2
22:00 59.5 °F 46.9 °F 30.11 in Calm   6.0 mph 63% 0.00 in 0.00 W/m2
22:05 59.3 °F 47.1 °F 30.11 in Calm   5.0 mph 64% 0.00 in 0.00 W/m2
22:10 59.1 °F 47.0 °F 30.11 in Calm   7.0 mph 64% 0.00 in 0.00 W/m2
22:15 59.0 °F 47.7 °F 30.11 in NNE 4.0 mph 6.0 mph 66% 0.00 in 0.00 W/m2
22:20 58.9 °F 47.6 °F 30.11 in NNE 4.0 mph 5.0 mph 66% 0.00 in 0.00 W/m2
22:25 58.7 °F 47.8 °F 30.11 in NNE 2.0 mph 6.0 mph 67% 0.00 in 0.00 W/m2
22:30 58.6 °F 47.3 °F 30.12 in NNE 4.0 mph 7.0 mph 66% 0.00 in 0.00 W/m2
22:35 58.5 °F 47.2 °F 30.11 in Calm   4.0 mph 66% 0.00 in 0.00 W/m2
22:40 58.4 °F 47.1 °F 30.11 in Calm   5.0 mph 66% 0.00 in 0.00 W/m2
22:45 58.3 °F 47.0 °F 30.11 in Calm   4.0 mph 66% 0.00 in 0.00 W/m2
22:50 58.3 °F 47.0 °F 30.11 in Calm   5.0 mph 66% 0.00 in 0.00 W/m2
22:55 58.2 °F 46.9 °F 30.11 in NE 3.0 mph 5.0 mph 66% 0.00 in 0.00 W/m2
23:00 58.2 °F 47.3 °F 30.12 in Calm   4.0 mph 67% 0.00 in 0.00 W/m2
23:05 58.1 °F 47.6 °F 30.12 in NE 3.0 mph 5.0 mph 68% 0.00 in 0.00 W/m2
23:10 58.0 °F 47.5 °F 30.12 in NE 2.0 mph 4.0 mph 68% 0.00 in 0.00 W/m2
23:16 57.9 °F 47.4 °F 30.11 in NE 3.0 mph 5.0 mph 68% 0.00 in 0.00 W/m2
23:21 57.8 °F 46.9 °F 30.11 in NE 3.0 mph 5.0 mph 67% 0.00 in 0.00 W/m2
23:26 57.8 °F 46.9 °F 30.11 in NE 2.0 mph 5.0 mph 67% 0.00 in 0.00 W/m2
23:31 57.8 °F 47.3 °F 30.11 in NE 2.0 mph 4.0 mph 68% 0.00 in 0.00 W/m2
23:36 57.7 °F 46.8 °F 30.11 in NE 2.0 mph 6.0 mph 67% 0.00 in 0.00 W/m2
23:41 57.7 °F 46.8 °F 30.11 in NE 4.0 mph 5.0 mph 67% 0.00 in 0.00 W/m2
23:46 57.7 °F 47.2 °F 30.11 in NE 2.0 mph 4.0 mph 68% 0.00 in 0.00 W/m2
23:51 57.7 °F 46.8 °F 30.11 in NE 2.0 mph 5.0 mph 67% 0.00 in 0.00 W/m2
23:56 57.6 °F 47.1 °F 30.11 in Calm   5.0 mph 68% 0.00 in 0.00 W/m2
Foresthill Weather
 WU-history PHP script courtesy of   Juneau County Weather.
powered by Cumulus v1.9.3 (1059)
Ambient Weather VWS v14.00
Top Contact Website Map Copyright © 2007 - 2018 Foresthillweather.com Never base important decisions on this or any weather information obtained from the Internet